Location: Devore Heights
(34.2372°N, 117.4156°W)
Time: 18:29:33
(UTC+00:00)

Vanguard 1 Rocket - Pass Details

Date: 13 September 2024
Orbit: 650 x 4218 km, 34.3° (Epoch: 04 October)

Event Time Altitude Azimuth Distance (km) Brightness Sun altitude
Rises 10:01:28 0° 217° (SW) 4,835 - -40.5°
Reaches altitude 10° 10:04:12 10° 210° (SSW) 4,203 - -40.1°
Exits shadow 10:12:44 44° 168° (SSE) 3,235 9.8 -38.8°
Maximum altitude 10:15:56 48° 140° (SE) 3,383 10.1 -38.2°
Drops below altitude 10° 10:36:42 10° 74° (ENE) 7,146 12.6 -34.8°
Sets 10:43:10 0° 71° (ENE) 8,394 13.3 -33.7°
